| time (UTC) | temp F | wind direction | speed MPH | gust MPH | rain 1hr in | rain 24hr in | rain mn in | humidity % | barometer mb |
| 20260505152911 | 61 | 271 | 10.0 | 13.0 | 0.00 | 0.00 | 0.00 | 100 | 1009.4 |
| 20260505152410 | 61 | 248 | 9.0 | 13.0 | 0.00 | 0.00 | 0.00 | 100 | 1009.4 |
| 20260505151909 | 62 | 227 | 8.0 | 13.0 | 0.00 | 0.00 | 0.00 | 100 | 1009.4 |
| 20260505151409 | 61 | 234 | 8.0 | 15.0 | 0.00 | 0.00 | 0.00 | 100 | 1009.4 |
| 20260505150908 | 61 | 255 | 9.0 | 15.0 | 0.00 | 0.00 | 0.00 | 100 | 1009.4 |
| 20260505150407 | 61 | 255 | 7.0 | 13.0 | 0.00 | 0.00 | 0.00 | 100 | 1009.4 |
| 20260505140400 | 60 | 227 | 6.0 | 9.0 | 0.00 | 0.00 | 0.00 | 100 | 1009.4 |
| 20260505130116 | 58 | 215 | 4.0 | 10.0 | 0.00 | 0.00 | 0.00 | 100 | 1009.4 |
| 20260505124847 | 58 | 194 | 7.0 | 11.0 | 0.00 | 0.00 | 0.00 | 100 | 1009.4 |
| 20260505124346 | 58 | 181 | 7.0 | 11.0 | 0.00 | 0.00 | 0.00 | 100 | 1009.4 |
| 20260505124114 | 58 | 161 | 4.0 | 9.0 | 0.00 | 0.00 | 0.00 | 100 | 1009.4 |
| 20260505123345 | 57 | 171 | 7.0 | 9.0 | 0.00 | 0.00 | 0.00 | 100 | 1009.4 |
| 20260505123104 | 57 | 171 | 2.0 | 8.0 | 0.00 | 0.00 | 0.00 | 100 | 1009.4 |
| 20260505122344 | 57 | 171 | 4.0 | 7.0 | 0.00 | 0.00 | 0.00 | 100 | 1009.4 |
| 20260505121844 | 56 | 182 | 1.0 | 7.0 | 0.00 | 0.00 | 0.00 | 100 | 1009.4 |
| 20260505121343 | 56 | 170 | 5.0 | 9.0 | 0.00 | 0.00 | 0.00 | 100 | 1009.4 |
| 20260505120842 | 56 | 182 | 5.0 | 9.0 | 0.00 | 0.00 | 0.00 | 100 | 1009.4 |
| 20260505120342 | 56 | 163 | 4.0 | 8.0 | 0.00 | 0.00 | 0.00 | 100 | 1009.4 |
| 20260505115841 | 56 | 171 | 6.0 | 8.0 | 0.00 | 0.00 | 0.00 | 100 | 1009.4 |
| 20260505115340 | 56 | 164 | 4.0 | 6.0 | 0.00 | 0.00 | 0.00 | 100 | 1009.4 |
| 20260505114839 | 56 | 192 | 4.0 | 8.0 | 0.00 | 0.00 | 0.00 | 100 | 1009.4 |
| 20260505114339 | 55 | 194 | 4.0 | 8.0 | 0.00 | 0.00 | 0.00 | 100 | 1009.4 |
| 20260505113838 | 56 | 171 | 3.0 | 9.0 | 0.00 | 0.00 | 0.00 | 100 | 1009.4 |
| 20260505112837 | 56 | 171 | 4.0 | 9.0 | 0.00 | 0.00 | 0.00 | 100 | 1009.4 |
| 20260505112337 | 56 | 153 | 5.0 | 9.0 | 0.00 | 0.00 | 0.00 | 100 | 1009.4 |
| 20260505111836 | 55 | 164 | 5.0 | 8.0 | 0.00 | 0.00 | 0.00 | 100 | 1009.4 |
| 20260505111335 | 56 | 150 | 4.0 | 9.0 | 0.00 | 0.00 | 0.00 | 100 | 1009.4 |
| 20260505110835 | 57 | 164 | 6.0 | 10.0 | 0.00 | 0.00 | 0.00 | 100 | 1009.4 |
| 20260505110334 | 57 | 164 | 7.0 | 12.0 | 0.00 | 0.00 | 0.00 | 100 | 1009.4 |
| 20260505101829 | 58 | 168 | 1.0 | 6.0 | 0.00 | 0.00 | 0.00 | 100 | 1009.4 |
| 20260505101328 | 60 | 109 | 2.0 | 8.0 | 0.00 | 0.00 | 0.00 | 100 | 1009.4 |
| 20260505100825 | 58 | 195 | 4.0 | 8.0 | 0.00 | 0.00 | 0.00 | 100 | 1009.4 |
| 20260505100549 | 59 | 244 | 4.0 | 9.0 | 0.00 | 0.00 | 0.00 | 100 | 1009.4 |
| 20260505095825 | 62 | 265 | 4.0 | 10.0 | 0.00 | 0.00 | 0.00 | 100 | 1009.4 |
| 20260505095324 | 63 | 232 | 6.0 | 11.0 | 0.00 | 0.00 | 0.00 | 100 | 1009.4 |
| 20260505094823 | 65 | 205 | 8.0 | 11.0 | 0.00 | 0.00 | 0.00 | 100 | 1009.4 |
| 20260505094323 | 65 | 225 | 7.0 | 9.0 | 0.00 | 0.00 | 0.00 | 100 | 1009.4 |
| 20260505093822 | 65 | 233 | 6.0 | 11.0 | 0.00 | 0.00 | 0.00 | 100 | 1009.4 |
| 20260505093321 | 65 | 243 | 6.0 | 12.0 | 0.00 | 0.00 | 0.00 | 100 | 1009.4 |
| 20260505092821 | 65 | 241 | 8.0 | 12.0 | 0.00 | 0.00 | 0.00 | 100 | 1009.4 |
| 20260505092320 | 65 | 254 | 4.0 | 11.0 | 0.00 | 0.00 | 0.00 | 100 | 1009.4 |
| 20260505091819 | 65 | 223 | 6.0 | 11.0 | 0.00 | 0.00 | 0.00 | 100 | 1009.4 |
| 20260505091319 | 65 | 262 | 9.0 | 11.0 | 0.00 | 0.00 | 0.00 | 100 | 1009.4 |
| 20260505090818 | 66 | 284 | 5.0 | 12.0 | 0.00 | 0.00 | 0.00 | 100 | 1009.4 |
| 20260505090317 | 65 | 230 | 7.0 | 12.0 | 0.00 | 0.00 | 0.00 | 100 | 1009.4 |
| 20260505085817 | 65 | 229 | 6.0 | 16.0 | 0.00 | 0.00 | 0.00 | 100 | 1009.4 |
| 20260505085317 | 65 | 236 | 9.0 | 16.0 | 0.00 | 0.00 | 0.00 | 100 | 1009.4 |
| 20260505085042 | 66 | 246 | 8.0 | 17.0 | 0.00 | 0.00 | 0.00 | 100 | 1009.4 |
| 20260505084315 | 66 | 247 | 13.0 | 17.0 | 0.00 | 0.00 | 0.00 | 100 | 1009.4 |
| 20260505083815 | 66 | 230 | 12.0 | 19.0 | 0.00 | 0.00 | 0.00 | 100 | 1009.4 |
| 20260505083314 | 66 | 250 | 11.0 | 19.0 | 0.00 | 0.00 | 0.00 | 100 | 1009.4 |
| 20260505082813 | 67 | 236 | 11.0 | 15.0 | 0.00 | 0.00 | 0.00 | 100 | 1009.4 |
| 20260505082313 | 67 | 230 | 9.0 | 15.0 | 0.00 | 0.00 | 0.00 | 100 | 1009.4 |
| 20260505081812 | 67 | 236 | 10.0 | 15.0 | 0.00 | 0.00 | 0.00 | 100 | 1009.4 |
| 20260505080810 | 67 | 226 | 8.0 | 13.0 | 0.00 | 0.00 | 0.00 | 100 | 1009.4 |
| 20260505075810 | 67 | 212 | 7.0 | 13.0 | 0.00 | 0.00 | 0.00 | 100 | 1009.4 |
| 20260505075309 | 67 | 260 | 5.0 | 14.0 | 0.00 | 0.00 | 0.00 | 100 | 1009.4 |
| 20260505075033 | 67 | 225 | 9.0 | 14.0 | 0.00 | 0.00 | 0.00 | 100 | 1009.4 |
| 20260505074308 | 67 | 225 | 9.0 | 14.0 | 0.00 | 0.00 | 0.00 | 100 | 1009.4 |
| 20260505073808 | 68 | 255 | 9.0 | 15.0 | 0.00 | 0.00 | 0.00 | 100 | 1009.4 |
| 20260505073307 | 68 | 248 | 9.0 | 15.0 | 0.00 | 0.00 | 0.00 | 100 | 1009.4 |
| 20260505073025 | 68 | 247 | 10.0 | 14.0 | 0.00 | 0.00 | 0.00 | 100 | 1009.4 |
| 20260505072306 | 68 | 240 | 9.0 | 13.0 | 0.00 | 0.00 | 0.00 | 100 | 1009.4 |
| 20260505071805 | 68 | 260 | 9.0 | 11.0 | 0.00 | 0.00 | 0.00 | 100 | 1009.4 |
| 20260505071304 | 68 | 260 | 9.0 | 12.0 | 0.00 | 0.00 | 0.00 | 100 | 1009.4 |
| 20260505070804 | 68 | 255 | 9.0 | 13.0 | 0.00 | 0.00 | 0.00 | 100 | 1009.4 |
| 20260505070303 | 68 | 258 | 9.0 | 15.0 | 0.00 | 0.00 | 0.00 | 100 | 1009.4 |
| 20260505065803 | 68 | 247 | 11.0 | 15.0 | 0.00 | 0.00 | 0.00 | 100 | 1009.4 |
| 20260505065304 | 68 | 272 | 8.0 | 14.0 | 0.00 | 0.00 | 0.00 | 100 | 1009.4 |
| 20260505064801 | 68 | 265 | 7.0 | 15.0 | 0.00 | 0.00 | 0.00 | 100 | 1009.4 |
| 20260505064301 | 68 | 248 | 11.0 | 15.0 | 0.00 | 0.00 | 0.00 | 100 | 1009.4 |
| 20260505063800 | 68 | 260 | 11.0 | 13.0 | 0.00 | 0.00 | 0.00 | 100 | 1009.4 |
| 20260505063259 | 68 | 244 | 9.0 | 11.0 | 0.00 | 0.00 | 0.00 | 100 | 1009.4 |
| 20260505062800 | 68 | 284 | 6.0 | 12.0 | 0.00 | 0.00 | 0.00 | 100 | 1009.4 |
| 20260505062523 | 68 | 258 | 9.0 | 12.0 | 0.00 | 0.00 | 0.00 | 100 | 1009.4 |
| 20260505061758 | 68 | 268 | 8.0 | 11.0 | 0.00 | 0.00 | 0.00 | 100 | 1009.4 |
| 20260505061257 | 68 | 260 | 7.0 | 10.0 | 0.00 | 0.00 | 0.00 | 100 | 1009.4 |
| 20260505060757 | 68 | 248 | 8.0 | 10.0 | 0.00 | 0.00 | 0.00 | 100 | 1009.4 |
| 20260505060256 | 68 | 277 | 4.0 | 9.0 | 0.00 | 0.00 | 0.00 | 100 | 1009.4 |
| 20260505055756 | 68 | 255 | 7.0 | 10.0 | 0.00 | 0.00 | 0.00 | 100 | 1009.4 |
| 20260505055255 | 68 | 293 | 4.0 | 10.0 | 0.00 | 0.00 | 0.00 | 100 | 1009.4 |
| 20260505054754 | 69 | 264 | 8.0 | 10.0 | 0.00 | 0.00 | 0.00 | 100 | 1009.4 |
| 20260505054254 | 68 | 275 | 4.0 | 9.0 | 0.00 | 0.00 | 0.00 | 100 | 1009.4 |
| 20260505054017 | 69 | 254 | 6.0 | 9.0 | 0.00 | 0.00 | 0.00 | 100 | 1009.4 |
| 20260505053252 | 69 | 229 | 6.0 | 9.0 | 0.00 | 0.00 | 0.00 | 100 | 1009.4 |
| 20260505052252 | 69 | 241 | 5.0 | 11.0 | 0.00 | 0.00 | 0.00 | 100 | 1009.4 |
| 20260505051751 | 69 | 260 | 8.0 | 11.0 | 0.00 | 0.00 | 0.00 | 100 | 1009.4 |
| 20260505051514 | 69 | 264 | 7.0 | 11.0 | 0.00 | 0.00 | 0.00 | 100 | 1009.4 |
| 20260505051008 | 69 | 239 | 6.0 | 10.0 | 0.00 | 0.00 | 0.00 | 100 | 1009.4 |
| 20260505050249 | 69 | 264 | 6.0 | 10.0 | 0.00 | 0.00 | 0.00 | 100 | 1009.4 |
| 20260505041744 | 69 | 270 | 8.0 | 13.0 | 0.00 | 0.00 | 0.00 | 100 | 1009.4 |
| 20260505041503 | 69 | 250 | 10.0 | 13.0 | 0.00 | 0.00 | 0.00 | 100 | 1009.4 |
| 20260505040743 | 69 | 278 | 5.0 | 10.0 | 0.00 | 0.00 | 0.00 | 100 | 1009.4 |
| 20260505040242 | 69 | 270 | 7.0 | 10.0 | 0.00 | 0.00 | 0.00 | 100 | 1009.4 |
| 20260505035741 | 69 | 282 | 8.0 | 10.0 | 0.00 | 0.00 | 0.00 | 100 | 1009.4 |
| 20260505035241 | 69 | 267 | 6.0 | 9.0 | 0.00 | 0.00 | 0.00 | 100 | 1009.4 |
| 20260505034740 | 69 | 275 | 5.0 | 8.0 | 0.00 | 0.00 | 0.00 | 100 | 1009.4 |
| 20260505034239 | 69 | 270 | 5.0 | 8.0 | 0.00 | 0.00 | 0.00 | 100 | 1009.4 |
| 20260505033739 | 69 | 271 | 5.0 | 9.0 | 0.00 | 0.00 | 0.00 | 100 | 1009.4 |
| 20260505033238 | 69 | 274 | 4.0 | 9.0 | 0.00 | 0.00 | 0.00 | 100 | 1009.4 |
| 20260505032737 | 69 | 236 | 4.0 | 8.0 | 0.00 | 0.00 | 0.00 | 100 | 1009.4 |
| 20260505032236 | 69 | 274 | 5.0 | 10.0 | 0.00 | 0.00 | 0.00 | 100 | 1009.4 |
| 20260505031735 | 69 | 274 | 6.0 | 11.0 | 0.00 | 0.00 | 0.00 | 100 | 1009.4 |
| 20260505031233 | 69 | 250 | 6.0 | 11.0 | 0.00 | 0.00 | 0.00 | 100 | 1009.4 |
| 20260505030732 | 70 | 268 | 6.0 | 10.0 | 0.00 | 0.00 | 0.00 | 100 | 1009.4 |
| 20260505030233 | 70 | 247 | 8.0 | 11.0 | 0.00 | 0.00 | 0.00 | 100 | 1009.4 |
| 20260505025732 | 70 | 230 | 6.0 | 11.0 | 0.00 | 0.00 | 0.00 | 100 | 1009.4 |
| 20260505025231 | 70 | 248 | 7.0 | 11.0 | 0.00 | 0.00 | 0.00 | 100 | 1009.4 |
| 20260505024731 | 70 | 247 | 7.0 | 11.0 | 0.00 | 0.00 | 0.00 | 100 | 1009.4 |
| 20260505023730 | 70 | 267 | 9.0 | 11.0 | 0.00 | 0.00 | 0.00 | 100 | 1009.4 |
| 20260505023229 | 70 | 267 | 8.0 | 11.0 | 0.00 | 0.00 | 0.00 | 100 | 1009.4 |
| 20260505022728 | 70 | 281 | 8.0 | 12.0 | 0.00 | 0.00 | 0.00 | 100 | 1009.4 |
| 20260505022448 | 71 | 261 | 9.0 | 12.0 | 0.00 | 0.00 | 0.00 | 100 | 1009.4 |
| 20260505021727 | 70 | 265 | 8.0 | 11.0 | 0.00 | 0.00 | 0.00 | 100 | 1009.4 |
| 20260505021226 | 70 | 270 | 6.0 | 12.0 | 0.00 | 0.00 | 0.00 | 100 | 1009.4 |
| 20260505020725 | 71 | 265 | 8.0 | 12.0 | 0.00 | 0.00 | 0.00 | 100 | 1009.4 |
| 20260505020226 | 71 | 268 | 8.0 | 11.0 | 0.00 | 0.00 | 0.00 | 100 | 1009.4 |
| 20260505015725 | 71 | 264 | 8.0 | 11.0 | 0.00 | 0.00 | 0.00 | 100 | 1009.4 |
| 20260505015441 | 71 | 295 | 6.0 | 11.0 | 0.00 | 0.00 | 0.00 | 100 | 1009.4 |
| 20260505014723 | 71 | 289 | 7.0 | 11.0 | 0.00 | 0.00 | 0.00 | 100 | 1009.4 |
| 20260505014223 | 71 | 317 | 7.0 | 11.0 | 0.00 | 0.00 | 0.00 | 100 | 1009.4 |
| 20260505013722 | 71 | 282 | 9.0 | 11.0 | 0.00 | 0.00 | 0.00 | 100 | 1009.4 |
| 20260505013222 | 71 | 267 | 9.0 | 11.0 | 0.00 | 0.00 | 0.00 | 100 | 1009.4 |
| 20260505012721 | 71 | 262 | 6.0 | 13.0 | 0.00 | 0.00 | 0.00 | 100 | 1009.4 |
| 20260505012220 | 71 | 257 | 11.0 | 13.0 | 0.00 | 0.00 | 0.00 | 100 | 1009.4 |
| 20260505011719 | 72 | 264 | 10.0 | 13.0 | 0.00 | 0.00 | 0.00 | 100 | 1009.4 |
| 20260505011220 | 72 | 264 | 10.0 | 13.0 | 0.00 | 0.00 | 0.00 | 100 | 1009.4 |
| 20260505010718 | 72 | 275 | 4.0 | 12.0 | 0.00 | 0.00 | 0.00 | 100 | 1009.4 |
| 20260505010217 | 72 | 285 | 7.0 | 12.0 | 0.00 | 0.00 | 0.00 | 100 | 1009.4 |
| 20260505005718 | 73 | 227 | 6.0 | 11.0 | 0.00 | 0.00 | 0.00 | 100 | 1009.4 |
| 20260505005217 | 72 | 247 | 8.0 | 12.0 | 0.00 | 0.00 | 0.00 | 100 | 1009.4 |
| 20260505004717 | 73 | 244 | 10.0 | 12.0 | 0.00 | 0.00 | 0.00 | 100 | 1009.4 |
| 20260505004216 | 73 | 268 | 10.0 | 12.0 | 0.00 | 0.00 | 0.00 | 100 | 1009.4 |
| 20260505003715 | 73 | 292 | 6.0 | 9.0 | 0.00 | 0.00 | 0.00 | 100 | 1009.4 |
| 20260505003215 | 73 | 258 | 5.0 | 11.0 | 0.00 | 0.00 | 0.00 | 100 | 1009.4 |
| 20260505002714 | 73 | 254 | 6.0 | 11.0 | 0.00 | 0.00 | 0.00 | 100 | 1009.4 |
| 20260505002213 | 73 | 278 | 8.0 | 11.0 | 0.00 | 0.00 | 0.00 | 100 | 1009.4 |
| 20260505001713 | 73 | 248 | 9.0 | 14.0 | 0.00 | 0.00 | 0.00 | 100 | 1009.4 |
| 20260505001212 | 74 | 247 | 6.0 | 14.0 | 0.00 | 0.00 | 0.00 | 100 | 1009.4 |
| 20260505000712 | 73 | 236 | 11.0 | 14.0 | 0.00 | 0.00 | 0.00 | 100 | 1009.4 |
| 20260505000211 | 73 | 239 | 8.0 | 14.0 | 0.00 | 0.00 | 0.00 | 100 | 1009.4 |
| 20260504235710 | 74 | 251 | 9.0 | 14.0 | 0.00 | 0.00 | 0.00 | 100 | 1009.4 |
| 20260504235210 | 74 | 255 | 9.0 | 14.0 | 0.00 | 0.00 | 0.00 | 100 | 1009.4 |
| 20260504234208 | 75 | 247 | 6.0 | 13.0 | 0.00 | 0.00 | 0.00 | 100 | 1009.4 |
| 20260504233707 | 74 | 229 | 9.0 | 14.0 | 0.00 | 0.00 | 0.00 | 100 | 1009.4 |
| 20260504233208 | 74 | 243 | 2.0 | 14.0 | 0.00 | 0.00 | 0.00 | 100 | 1009.4 |
| 20260504232707 | 75 | 233 | 9.0 | 14.0 | 0.00 | 0.00 | 0.00 | 100 | 1009.4 |
| 20260504232206 | 74 | 236 | 1.0 | 10.0 | 0.00 | 0.00 | 0.00 | 100 | 1009.4 |
| 20260504231703 | 75 | 226 | 3.0 | 14.0 | 0.00 | 0.00 | 0.00 | 100 | 1009.4 |
| 20260504231424 | 74 | 247 | 4.0 | 14.0 | 0.00 | 0.00 | 0.00 | 100 | 1009.4 |
| 20260504230702 | 73 | 239 | 8.0 | 14.0 | 0.00 | 0.00 | 0.00 | 100 | 1009.4 |
| 20260504230201 | 73 | 261 | 4.0 | 12.0 | 0.00 | 0.00 | 0.00 | 100 | 1009.4 |
| 20260504225701 | 74 | 258 | 8.0 | 11.0 | 0.00 | 0.00 | 0.00 | 100 | 1009.4 |
| 20260504225200 | 73 | 180 | 4.0 | 11.0 | 0.00 | 0.00 | 0.00 | 100 | 1009.4 |
| 20260504224659 | 74 | 222 | 4.0 | 11.0 | 0.00 | 0.00 | 0.00 | 100 | 1009.4 |
| 20260504224159 | 75 | 220 | 4.0 | 10.0 | 0.00 | 0.00 | 0.00 | 100 | 1009.4 |
| 20260504223659 | 75 | 202 | 6.0 | 10.0 | 0.00 | 0.00 | 0.00 | 100 | 1009.4 |
| 20260504223158 | 74 | 267 | 6.0 | 10.0 | 0.00 | 0.00 | 0.00 | 100 | 1009.4 |
| 20260504222657 | 73 | 268 | 4.0 | 11.0 | 0.00 | 0.00 | 0.00 | 100 | 1009.4 |
| 20260504222414 | 73 | 147 | 0.0 | 11.0 | 0.00 | 0.00 | 0.00 | 100 | 1009.4 |
| 20260504221912 | 75 | 239 | 6.0 | 11.0 | 0.00 | 0.00 | 0.00 | 100 | 1009.4 |
| 20260504221152 | 76 | 241 | 9.0 | 11.0 | 0.00 | 0.00 | 0.00 | 100 | 1009.4 |
| 20260504220651 | 76 | 284 | 7.0 | 11.0 | 0.00 | 0.00 | 0.00 | 100 | 1009.4 |
| 20260504220150 | 75 | 251 | 4.0 | 15.0 | 0.00 | 0.00 | 0.00 | 100 | 1009.4 |
| 20260504215650 | 74 | 130 | 1.0 | 15.0 | 0.00 | 0.00 | 0.00 | 100 | 1009.4 |
| 20260504215147 | 75 | 293 | 11.0 | 15.0 | 0.00 | 0.00 | 0.00 | 100 | 1009.4 |
| 20260504214646 | 74 | 264 | 3.0 | 14.0 | 0.00 | 0.00 | 0.00 | 100 | 1009.4 |
| 20260504214146 | 74 | 248 | 8.0 | 15.0 | 0.00 | 0.00 | 0.00 | 100 | 1009.4 |
| 20260504213645 | 74 | 267 | 12.0 | 15.0 | 0.00 | 0.00 | 0.00 | 100 | 1009.4 |
| 20260504213144 | 74 | 279 | 9.0 | 14.0 | 0.00 | 0.00 | 0.00 | 100 | 1009.4 |
| 20260504212644 | 74 | 241 | 9.0 | 12.0 | 0.00 | 0.00 | 0.00 | 100 | 1009.4 |
| 20260504212143 | 75 | 270 | 6.0 | 12.0 | 0.00 | 0.00 | 0.00 | 100 | 1009.4 |
| 20260504211643 | 74 | 233 | 9.0 | 12.0 | 0.00 | 0.00 | 0.00 | 100 | 1009.4 |
| 20260504211142 | 74 | 248 | 2.0 | 13.0 | 0.00 | 0.00 | 0.00 | 100 | 1009.4 |
| 20260504210642 | 73 | 289 | 5.0 | 13.0 | 0.00 | 0.00 | 0.00 | 100 | 1009.4 |
| 20260504210141 | 74 | 250 | 7.0 | 13.0 | 0.00 | 0.00 | 0.00 | 100 | 1009.4 |
| 20260504205640 | 74 | 262 | 5.0 | 13.0 | 0.00 | 0.00 | 0.00 | 100 | 1009.4 |
| 20260504205139 | 73 | 241 | 4.0 | 12.0 | 0.00 | 0.00 | 0.00 | 100 | 1009.4 |
| 20260504204639 | 74 | 237 | 7.0 | 12.0 | 0.00 | 0.00 | 0.00 | 100 | 1009.4 |
| 20260504204138 | 74 | 279 | 9.0 | 13.0 | 0.00 | 0.00 | 0.00 | 100 | 1009.4 |
| 20260504203638 | 73 | 258 | 4.0 | 13.0 | 0.00 | 0.00 | 0.00 | 100 | 1009.4 |
| 20260504203137 | 74 | 270 | 7.0 | 13.0 | 0.00 | 0.00 | 0.00 | 100 | 1009.4 |
| 20260504202857 | 75 | 239 | 6.0 | 12.0 | 0.00 | 0.00 | 0.00 | 100 | 1009.4 |
| 20260504202137 | 74 | 236 | 7.0 | 13.0 | 0.00 | 0.00 | 0.00 | 100 | 1009.4 |
| 20260504201636 | 73 | 244 | 8.0 | 16.0 | 0.00 | 0.00 | 0.00 | 100 | 1009.4 |
| 20260504201135 | 72 | 251 | 8.0 | 16.0 | 0.00 | 0.00 | 0.00 | 100 | 1009.4 |
| 20260504200635 | 72 | 260 | 11.0 | 15.0 | 0.00 | 0.00 | 0.00 | 100 | 1009.4 |
| 20260504200134 | 72 | 270 | 8.0 | 13.0 | 0.00 | 0.00 | 0.00 | 100 | 1009.4 |
| 20260504195633 | 72 | 267 | 9.0 | 13.0 | 0.00 | 0.00 | 0.00 | 100 | 1009.4 |
| 20260504195133 | 72 | 298 | 9.0 | 13.0 | 0.00 | 0.00 | 0.00 | 100 | 1009.4 |
| 20260504194632 | 71 | 334 | 7.0 | 13.0 | 0.00 | 0.00 | 0.00 | 100 | 1009.4 |
| 20260504194131 | 72 | 261 | 2.0 | 11.0 | 0.00 | 0.00 | 0.00 | 100 | 1009.4 |
| 20260504193850 | 72 | 258 | 5.0 | 11.0 | 0.00 | 0.00 | 0.00 | 100 | 1009.4 |
| 20260504193130 | 72 | 254 | 7.0 | 10.0 | 0.00 | 0.00 | 0.00 | 100 | 1009.4 |
| 20260504192629 | 72 | 300 | 5.0 | 9.0 | 0.00 | 0.00 | 0.00 | 100 | 1009.4 |
| 20260504192129 | 72 | 254 | 5.0 | 12.0 | 0.00 | 0.00 | 0.00 | 100 | 1009.4 |
| 20260504191629 | 71 | 264 | 2.0 | 12.0 | 0.00 | 0.00 | 0.00 | 100 | 1009.4 |
| 20260504191128 | 72 | 226 | 6.0 | 13.0 | 0.00 | 0.00 | 0.00 | 100 | 1009.4 |
| 20260504190627 | 72 | 267 | 5.0 | 13.0 | 0.00 | 0.00 | 0.00 | 100 | 1009.4 |
| 20260504190126 | 71 | 265 | 3.0 | 13.0 | 0.00 | 0.00 | 0.00 | 100 | 1009.4 |
| 20260504185835 | 74 | 264 | 5.0 | 11.0 | 0.00 | 0.00 | 0.00 | 100 | 1009.4 |
| 20260504185115 | 72 | 267 | 5.0 | 13.0 | 0.00 | 0.00 | 0.00 | 100 | 1009.4 |
| 20260504184615 | 72 | 289 | 6.0 | 13.0 | 0.00 | 0.00 | 0.00 | 100 | 1009.4 |
| 20260504184114 | 71 | 331 | 9.0 | 13.0 | 0.00 | 0.00 | 0.00 | 100 | 1009.4 |
| 20260504183613 | 71 | 272 | 0.0 | 11.0 | 0.00 | 0.00 | 0.00 | 100 | 1009.4 |
| 20260504183101 | 71 | 243 | 9.0 | 13.0 | 0.00 | 0.00 | 0.00 | 100 | 1009.4 |
| 20260504182601 | 71 | 254 | 7.0 | 13.0 | 0.00 | 0.00 | 0.00 | 100 | 1009.4 |
| 20260504182320 | 71 | 253 | 9.0 | 12.0 | 0.00 | 0.00 | 0.00 | 100 | 1009.4 |
| 20260504181559 | 71 | 257 | 7.0 | 16.0 | 0.00 | 0.00 | 0.00 | 100 | 1009.4 |
| 20260504181323 | 70 | 293 | 7.0 | 16.0 | 0.00 | 0.00 | 0.00 | 100 | 1009.4 |
| 20260504180557 | 69 | 262 | 12.0 | 16.0 | 0.00 | 0.00 | 0.00 | 100 | 1009.4 |
| 20260504180057 | 70 | 253 | 11.0 | 15.0 | 0.00 | 0.00 | 0.00 | 100 | 1009.4 |
| 20260504175819 | 70 | 271 | 9.0 | 16.0 | 0.00 | 0.00 | 0.00 | 100 | 1009.4 |
| 20260504174555 | 70 | 258 | 9.0 | 14.0 | 0.00 | 0.00 | 0.00 | 100 | 1009.4 |
| 20260504174055 | 70 | 288 | 5.0 | 9.0 | 0.00 | 0.00 | 0.00 | 100 | 1009.4 |
| 20260504173554 | 69 | 246 | 2.0 | 10.0 | 0.00 | 0.00 | 0.00 | 100 | 1009.4 |
| 20260504173053 | 69 | 217 | 5.0 | 10.0 | 0.00 | 0.00 | 0.00 | 100 | 1009.4 |
| 20260504172552 | 69 | 213 | 4.0 | 10.0 | 0.00 | 0.00 | 0.00 | 100 | 1009.4 |
| 20260504172053 | 69 | 246 | 5.0 | 10.0 | 0.00 | 0.00 | 0.00 | 100 | 1009.4 |
| 20260504171552 | 69 | 236 | 7.0 | 12.0 | 0.00 | 0.00 | 0.00 | 100 | 1009.4 |
| 20260504171052 | 69 | 285 | 6.0 | 14.0 | 0.00 | 0.00 | 0.00 | 100 | 1009.4 |
| 20260504170551 | 68 | 265 | 7.0 | 16.0 | 0.00 | 0.00 | 0.00 | 100 | 1009.4 |
| 20260504160303 | 69 | 278 | 10.0 | 13.0 | 0.00 | 0.00 | 0.00 | 100 | 1009.4 |